Findlay, OH

9:21 AM EST on November 18, 2019 (GMT -0500)
Findlay

Weather History for KFDY - September, 2019

Change the Weather History Date:

Sunday, September 15, 2019

  Actual Average Record
Temperature  
Mean Temperature 72 °F -  
Max Temperature 81 °F 74 °F 92 °F (1991)
Min Temperature 62 °F 54 °F 39 °F (1953)
Cooling Degree Days 6    
Growing Degree Days 22 (Base 50)    
Moisture  
Dew Point 60 °F    
Average Humidity 70    
Maximum Humidity 87    
Minimum Humidity 47    
Precipitation  
Precipitation 0.00 in - - ()
Sea Level Pressure  
Sea Level Pressure 30.12 in    
Wind  
Wind Speed 6 mph (South)    
Max Wind Speed 16 mph    
Max Gust Speed -    
Visibility 10 miles    
Events      
Averages and records for this station are not official NWS values.
T = Trace of Precipitation, MM = Missing Value Source: NWS Daily Summary

Daily Weather History Graph

Daily Weather History Graph

Search for Another Location

Airport or City:

Astronomy

Sep. 15, 2019 Rise Set
Actual Time 7:15 AM EDT 7:44 PM EDT
Civil Twilight 6:47 AM EDT 8:11 PM EDT
Nautical Twilight 6:14 AM EDT 8:44 PM EDT
Astronomical Twilight 5:41 AM EDT 9:17 PM EDT
Moon 8:51 PM EDT (9/15) 8:24 AM EDT (9/15)
Length of Visible Light 13h 24m
Length of Day
12h 29m
Full, 98% of the Moon is Illuminated
Sep 15
Full
Sep 21
Last Quarter
Sep 28
New
Oct 5
First Quarter
Oct 13
Full

Hourly Weather History & Observations

Time (EDT) Temp. Heat Index Dew Point Humidity Pressure Visibility Wind Dir Wind Speed Gust Speed Precip Events Conditions
12:53 AM 62.1 °F - 57.0 °F 84% 30.19 in 10.0 mi South 6.9 mph - N/A   Clear
1:53 AM 62.1 °F - 57.0 °F 84% 30.18 in 10.0 mi South 4.6 mph - N/A   Clear
2:53 AM 62.1 °F - 57.0 °F 84% 30.17 in 10.0 mi South 5.8 mph - N/A   Clear
3:53 AM 64.0 °F - 57.9 °F 80% 30.16 in 10.0 mi South 5.8 mph - N/A   Clear
4:53 AM 63.0 °F - 57.9 °F 84% 30.15 in 10.0 mi South 4.6 mph - N/A   Partly Cloudy
5:53 AM 63.0 °F - 57.9 °F 84% 30.15 in 10.0 mi South 4.6 mph - N/A   Mostly Cloudy
6:53 AM 63.0 °F - 59.0 °F 87% 30.16 in 10.0 mi South 3.5 mph - N/A   Partly Cloudy
7:53 AM 64.9 °F - 59.0 °F 81% 30.14 in 10.0 mi SSE 9.2 mph - N/A   Clear
8:53 AM 64.9 °F - 60.1 °F 84% 30.17 in 10.0 mi South 5.8 mph - N/A   Mostly Cloudy
9:53 AM 69.1 °F - 61.0 °F 75% 30.18 in 10.0 mi South 4.6 mph - N/A   Scattered Clouds
10:53 AM 71.1 °F - 61.0 °F 70% 30.17 in 10.0 mi SSW 5.8 mph - N/A   Mostly Cloudy
11:53 AM 73.9 °F - 61.0 °F 64% 30.17 in 10.0 mi SSW 8.1 mph - N/A   Mostly Cloudy
12:53 PM 75.0 °F - 62.1 °F 64% 30.16 in 10.0 mi SSW 8.1 mph - N/A   Clear
1:53 PM 77.0 °F - 62.1 °F 60% 30.15 in 10.0 mi SSW 6.9 mph - N/A   Mostly Cloudy
2:53 PM 78.1 °F - 60.1 °F 54% 30.12 in 10.0 mi SW 9.2 mph - N/A   Overcast
3:53 PM 78.1 °F - 61.0 °F 56% 30.07 in 10.0 mi South 8.1 mph - N/A   Overcast
4:53 PM 81.0 °F 81.3 °F 59.0 °F 47% 30.04 in 10.0 mi South 16.1 mph - N/A   Clear
5:53 PM 78.1 °F - 60.1 °F 54% 30.05 in 10.0 mi SSW 8.1 mph - N/A   Overcast
6:53 PM 75.9 °F - 61.0 °F 60% 30.05 in 10.0 mi SSW 5.8 mph - N/A   Overcast
7:53 PM 73.9 °F - 61.0 °F 64% 30.04 in 10.0 mi SSW 6.9 mph - N/A   Overcast
8:53 PM 73.0 °F - 61.0 °F 66% 30.03 in 10.0 mi South 5.8 mph - N/A   Overcast
10:53 PM 72.0 °F - 60.1 °F 66% 30.03 in 10.0 mi South 5.8 mph - N/A   Overcast
11:53 PM 72.0 °F - 59.0 °F 64% 30.03 in 10.0 mi Calm Calm - N/A   Mostly Cloudy